Find Starlink 31415

NORAD ID: 59419 Int'l Des: 2024-064 Owner: SPXS Country: US Constellation: starlink operational
LEOCIRCULAR

当前视图

正在加载3D地球...

About Starlink 31415

Starlink 31415 (NORAD 59419) is a starlink constellation satellite (v2 mini) launched Apr 5, 2024 by SPXS of US. It operates in LEO, CIRCULAR orbit with a mass of 730.00 kg.

即将过境

Passes for default location (London). Set your location on the main map for personalized predictions.

高度历史

Loading altitude history...

两行轨道根数

1 59419U 24064X 26264.66966965 .00000545 00000-0 29338-4 0 9990
2 59419 43.0051 29.7920 0001320 295.0796 64.9919 15.27580117139194
Epoch: Sep 21, 2026 • Age: 11 hours

当前状态

高度 488.5 km
远地点 / 近地点 N/A
速度 7.62 km/s
星下点 -25.42°S, 47.51°W
发射日期 Apr 5, 2024
运行时间 2.4 years
类型 internet

技术详情

分类 Payload
质量 730.00 kg
干质量 700.00 kg
长度 0.30 m
跨度 29.00 m
形状 ? Box + pan
制造商 SPXS
平台类型 Starlink V2M
阶段状态 In Orbit
所有者/国家 SPXS/US

Most Searched